Home   Weather   Fairfield   Past weeks
Flag for USA

Past Weather in Fairfield, Michigan, USA — Yesterday and Last 2 Weeks

Now
54 °F

Light rain. Cloudy.


Feels Like: 52 °F
Forecast: 64 / 43 °F
Wind: 7 mph from Northwest

Location: Toledo Suburban Airport
Current Time: Oct 1, 2020 at 4:36:17 pm
Latest Report: Oct 1, 2020 at 3:35 pm
Visibility: 10 mi
Pressure29.93 "Hg
Humidity: 71%
Dew Point: 45 °F
Location of FairfieldLocation

Past Weather in Fairfield — Graph

°F

Fairfield Temperature Yesterday

Maximum temperature yesterday: 65 °F (at 4:15 pm)
Minimum temperature yesterday: 48 °F (at 1:15 am)
Average temperature yesterday: 53 °F

High & Low Weather Summary for the Past Weeks

 TemperatureHumidityPressure
High82 °F (Sep 23, 3:35 pm)99% (Sep 21, 3:35 am)30.51 "Hg (Sep 21, 3:35 am)
Low36 °F (Sep 20, 7:35 am)31% (Sep 22, 2:35 pm)29.57 "Hg (Sep 30, 1:15 pm)
Average59 °F73%30.04 "Hg
* Reported Sep 16 3:15 pm — Oct 1 3:15 pm, Fairfield. Weather by CustomWeather, © 2020

Note: Actual official high and low records may vary slightly from our data, if they occured in-between our weather recording intervals... More about our weather records

Fairfield Weather History for the Previous 24 Hours

Scroll right to see more
 ConditionsComfort  
Time TempWeatherWind HumidityBarometerVisibility
3:15 pm
Thu, Oct 1
55 °FBroken clouds.14 mph71%29.93 "Hg10 mi
2:55 pm53 °FBroken clouds.6 mph77%29.92 "Hg10 mi
2:35 pm60 °FBroken clouds.17 mph53%29.90 "Hg10 mi
2:15 pm63 °FBroken clouds.7 mph46%29.90 "Hg10 mi
1:55 pm60 °FCloudy.3 mph53%29.90 "Hg10 mi
1:35 pm60 °FBroken clouds.9 mph57%29.91 "Hg10 mi
1:15 pm63 °FBroken clouds.12 mph51%29.91 "Hg10 mi
12:55 pm62 °FBroken clouds.7 mph55%29.91 "Hg10 mi
12:35 pm60 °FScattered clouds.7 mph58%29.91 "Hg10 mi
12:15 pm62 °FScattered clouds.8 mph56%29.92 "Hg10 mi
11:55 am61 °FScattered clouds.8 mph56%29.92 "Hg10 mi
11:35 am60 °FScattered clouds.7 mph57%29.92 "Hg10 mi
11:15 am59 °FScattered clouds.5 mph62%29.92 "Hg10 mi
10:55 am57 °FScattered clouds.6 mph67%29.92 "Hg10 mi
10:35 am55 °FBroken clouds.6 mph72%29.93 "Hg10 mi
10:15 am55 °FScattered clouds.6 mph71%29.92 "Hg10 mi
9:35 am53 °FSunny.5 mph76%29.92 "Hg10 mi
9:15 am51 °FSunny.6 mph77%29.91 "Hg10 mi
8:55 am50 °FSunny.8 mph79%29.91 "Hg10 mi
8:35 am49 °FSunny.6 mph82%29.90 "Hg10 mi
8:15 am47 °FSunny.5 mph85%29.90 "Hg10 mi
7:55 am46 °FSunny.5 mph86%29.90 "Hg10 mi
7:35 am47 °FSunny.6 mph86%29.89 "Hg10 mi
7:15 am48 °FClear.6 mph84%29.89 "Hg10 mi
6:55 am47 °FClear.5 mph84%29.88 "Hg10 mi
6:35 am47 °FClear.7 mph85%29.88 "Hg10 mi
6:15 am47 °FClear.5 mph87%29.88 "Hg10 mi
5:55 am47 °FClear.5 mph87%29.87 "Hg10 mi
5:35 am47 °FClear.3 mph87%29.87 "Hg10 mi
5:15 am47 °FClear.5 mph85%29.87 "Hg10 mi
4:55 am48 °FClear.6 mph84%29.86 "Hg10 mi
4:35 am48 °FClear.6 mph85%29.86 "Hg10 mi
4:15 am49 °FClear.6 mph84%29.86 "Hg10 mi
3:35 am49 °FClear.7 mph82%29.85 "Hg10 mi
3:15 am50 °FClear.6 mph81%29.85 "Hg10 mi
2:55 am50 °FClear.9 mph79%29.85 "Hg10 mi
2:35 am50 °FClear.8 mph79%29.85 "Hg10 mi
2:15 am50 °FPassing clouds.8 mph79%29.85 "Hg10 mi
1:55 am50 °FPassing clouds.9 mph79%29.85 "Hg10 mi
1:35 am50 °FPassing clouds.12 mph79%29.85 "Hg10 mi
1:15 am50 °FClear.8 mph80%29.84 "Hg10 mi
12:55 am50 °FClear.9 mph82%29.84 "Hg10 mi
12:35 am50 °FClear.9 mph82%29.83 "Hg10 mi
12:15 am50 °FClear.8 mph84%29.83 "Hg10 mi
11:55 pm
Wed, Sep 30
49 °FPassing clouds.7 mph89%29.82 "Hg10 mi
11:35 pm49 °FPassing clouds.5 mph90%29.82 "Hg10 mi
11:15 pm50 °FClear.6 mph88%29.82 "Hg10 mi
10:55 pm51 °FPassing clouds.7 mph86%29.81 "Hg10 mi
10:35 pm51 °FClear.8 mph84%29.81 "Hg10 mi
10:15 pm52 °FPassing clouds.6 mph82%29.80 "Hg10 mi
9:35 pm53 °FMostly cloudy.12 mph77%29.79 "Hg10 mi
9:15 pm54 °FOvercast.9 mph76%29.79 "Hg10 mi
8:55 pm55 °FOvercast.15 mph75%29.78 "Hg10 mi
8:35 pm55 °FPartly cloudy.14 mph72%29.76 "Hg10 mi
8:15 pm55 °FPassing clouds.12 mph74%29.74 "Hg10 mi
7:55 pm56 °FPassing clouds.7 mph82%29.73 "Hg10 mi
7:35 pm55 °FPassing clouds.10 mph85%29.72 "Hg10 mi
7:15 pm55 °FScattered clouds.9 mph86%29.70 "Hg10 mi
6:55 pm55 °FSunny.8 mph85%29.69 "Hg10 mi
6:35 pm56 °FScattered clouds.9 mph82%29.67 "Hg10 mi
6:15 pm55 °FPartly sunny.9 mph83%29.66 "Hg10 mi
5:55 pm54 °FMore clouds than sun.6 mph85%29.65 "Hg10 mi
5:35 pm54 °FLight rain. Mostly cloudy.8 mph86%29.64 "Hg10 mi
5:15 pm54 °FDrizzle. Cloudy.10 mph85%29.63 "Hg7 mi
4:55 pm64 °FBroken clouds.25 mph53%29.62 "Hg10 mi
4:35 pm65 °FBroken clouds.20 mph55%29.57 "Hg10 mi
4:15 pm65 °FScattered clouds.10 mph56%29.57 "Hg10 mi
Weather by CustomWeather, © 2020

See weather overview